Year,Month,Day,Hour,Minute,Value (Times are PST for insolation in W/m^2)
2012,06,02,00,00,5.00
2012,06,02,00,01,5.00
2012,06,02,00,02,5.00
2012,06,02,00,03,5.00
2012,06,02,00,04,5.00
2012,06,02,00,05,5.00
2012,06,02,00,06,5.00
2012,06,02,00,07,5.00
2012,06,02,00,08,5.00
2012,06,02,00,09,5.00
2012,06,02,00,10,5.00
2012,06,02,00,11,5.00
2012,06,02,00,12,5.00
2012,06,02,00,13,5.00
2012,06,02,00,14,5.00
2012,06,02,00,15,2.20
2012,06,02,00,16,0.00
2012,06,02,00,17,0.00
2012,06,02,00,18,0.00
2012,06,02,00,19,0.00
2012,06,02,00,20,0.00
2012,06,02,00,21,0.00
2012,06,02,00,22,0.00
2012,06,02,00,23,0.00
2012,06,02,00,24,0.00
2012,06,02,00,25,0.00
2012,06,02,00,26,0.00
2012,06,02,00,27,0.00
2012,06,02,00,28,0.00
2012,06,02,00,29,0.00
2012,06,02,00,30,0.00
2012,06,02,00,31,0.00
2012,06,02,00,32,0.00
2012,06,02,00,33,0.00
2012,06,02,00,34,0.00
2012,06,02,00,35,0.00
2012,06,02,00,36,0.00
2012,06,02,00,37,0.00
2012,06,02,00,38,0.00
2012,06,02,00,39,0.00
2012,06,02,00,40,0.00
2012,06,02,00,41,0.00
2012,06,02,00,42,0.00
2012,06,02,00,43,0.00
2012,06,02,00,44,0.00
2012,06,02,00,45,0.00
2012,06,02,00,46,0.00
2012,06,02,00,47,0.00
2012,06,02,00,48,0.00
2012,06,02,00,49,0.00
2012,06,02,00,50,0.00
2012,06,02,00,51,0.00
2012,06,02,00,52,0.00
2012,06,02,00,53,0.00
2012,06,02,00,54,0.00
2012,06,02,00,55,0.00
2012,06,02,00,56,0.00
2012,06,02,00,57,0.00
2012,06,02,00,58,0.00
2012,06,02,00,59,0.00
2012,06,02,01,00,0.00
2012,06,02,01,01,0.00
2012,06,02,01,02,0.00
2012,06,02,01,03,0.00
2012,06,02,01,04,0.00
2012,06,02,01,05,0.00
2012,06,02,01,06,0.00
2012,06,02,01,07,0.00
2012,06,02,01,08,0.00
2012,06,02,01,09,0.00
2012,06,02,01,10,0.00
2012,06,02,01,11,0.00
2012,06,02,01,12,0.00
2012,06,02,01,13,0.00
2012,06,02,01,14,0.00
2012,06,02,01,15,0.00
2012,06,02,01,16,0.00
2012,06,02,01,17,0.00
2012,06,02,01,18,0.00
2012,06,02,01,19,0.00
2012,06,02,01,20,0.00
2012,06,02,01,21,0.00
2012,06,02,01,22,0.00
2012,06,02,01,23,0.00
2012,06,02,01,24,0.00
2012,06,02,01,25,0.00
2012,06,02,01,26,0.00
2012,06,02,01,27,0.00
2012,06,02,01,28,0.00
2012,06,02,01,29,0.00
2012,06,02,01,30,0.00
2012,06,02,01,31,0.00
2012,06,02,01,32,0.00
2012,06,02,01,33,0.00
2012,06,02,01,34,0.00
2012,06,02,01,35,0.00
2012,06,02,01,36,0.00
2012,06,02,01,37,0.00
2012,06,02,01,38,0.00
2012,06,02,01,39,0.00
2012,06,02,01,40,0.00
2012,06,02,01,41,0.00
2012,06,02,01,42,0.00
2012,06,02,01,43,0.00
2012,06,02,01,44,0.00
2012,06,02,01,45,0.00
2012,06,02,01,46,0.00
2012,06,02,01,47,0.00
2012,06,02,01,48,0.00
2012,06,02,01,49,0.00
2012,06,02,01,50,0.00
2012,06,02,01,51,0.00
2012,06,02,01,52,0.00
2012,06,02,01,53,0.00
2012,06,02,01,54,0.00
2012,06,02,01,55,0.00
2012,06,02,01,56,0.00
2012,06,02,01,57,0.00
2012,06,02,01,58,0.00
2012,06,02,01,59,0.00
2012,06,02,02,00,0.00
2012,06,02,02,01,0.00
2012,06,02,02,02,0.00
2012,06,02,02,03,0.00
2012,06,02,02,04,0.00
2012,06,02,02,05,0.00
2012,06,02,02,06,0.00
2012,06,02,02,07,0.00
2012,06,02,02,08,0.00
2012,06,02,02,09,0.00
2012,06,02,02,10,0.00
2012,06,02,02,11,0.00
2012,06,02,02,12,0.00
2012,06,02,02,13,0.00
2012,06,02,02,14,0.00
2012,06,02,02,15,0.00
2012,06,02,02,16,0.00
2012,06,02,02,17,0.00
2012,06,02,02,18,0.00
2012,06,02,02,19,0.00
2012,06,02,02,20,0.00
2012,06,02,02,21,0.00
2012,06,02,02,22,0.00
2012,06,02,02,23,0.00
2012,06,02,02,24,0.00
2012,06,02,02,25,0.00
2012,06,02,02,26,0.00
2012,06,02,02,27,0.00
2012,06,02,02,28,0.00
2012,06,02,02,29,0.00
2012,06,02,02,30,0.00
2012,06,02,02,31,0.00
2012,06,02,02,32,0.00
2012,06,02,02,33,0.00
2012,06,02,02,34,0.00
2012,06,02,02,35,0.00
2012,06,02,02,36,0.00
2012,06,02,02,37,0.00
2012,06,02,02,38,0.00
2012,06,02,02,39,0.00
2012,06,02,02,40,0.00
2012,06,02,02,41,0.00
2012,06,02,02,42,0.00
2012,06,02,02,43,0.00
2012,06,02,02,44,0.00
2012,06,02,02,45,0.00
2012,06,02,02,46,0.00
2012,06,02,02,47,0.00
2012,06,02,02,48,0.00
2012,06,02,02,49,0.00
2012,06,02,02,50,0.00
2012,06,02,02,51,0.00
2012,06,02,02,52,0.00
2012,06,02,02,53,0.00
2012,06,02,02,54,0.00
2012,06,02,02,55,0.00
2012,06,02,02,56,0.00
2012,06,02,02,57,0.00
2012,06,02,02,58,0.00
2012,06,02,02,59,0.00
2012,06,02,03,00,0.00
2012,06,02,03,01,0.00
2012,06,02,03,02,0.00
2012,06,02,03,03,0.00
2012,06,02,03,04,0.00
2012,06,02,03,05,0.00
2012,06,02,03,06,0.00
2012,06,02,03,07,0.00
2012,06,02,03,08,0.00
2012,06,02,03,09,0.00
2012,06,02,03,10,0.00
2012,06,02,03,11,0.00
2012,06,02,03,12,0.00
2012,06,02,03,13,0.00
2012,06,02,03,14,0.00
2012,06,02,03,15,0.00
2012,06,02,03,16,0.00
2012,06,02,03,17,0.00
2012,06,02,03,18,0.00
2012,06,02,03,19,0.00
2012,06,02,03,20,0.00
2012,06,02,03,21,0.00
2012,06,02,03,22,0.00
2012,06,02,03,23,0.00
2012,06,02,03,24,0.00
2012,06,02,03,25,0.00
2012,06,02,03,26,0.00
2012,06,02,03,27,0.00
2012,06,02,03,28,0.00
2012,06,02,03,29,0.00
2012,06,02,03,30,0.00
2012,06,02,03,31,0.00
2012,06,02,03,32,0.00
2012,06,02,03,33,0.00
2012,06,02,03,34,0.00
2012,06,02,03,35,0.00
2012,06,02,03,36,0.00
2012,06,02,03,37,0.00
2012,06,02,03,38,0.00
2012,06,02,03,39,0.00
2012,06,02,03,40,0.00
2012,06,02,03,41,0.00
2012,06,02,03,42,0.00
2012,06,02,03,43,0.00
2012,06,02,03,44,0.00
2012,06,02,03,45,0.00
2012,06,02,03,46,0.00
2012,06,02,03,47,0.00
2012,06,02,03,48,0.00
2012,06,02,03,49,0.00
2012,06,02,03,50,0.00
2012,06,02,03,51,0.00
2012,06,02,03,52,0.00
2012,06,02,03,53,0.00
2012,06,02,03,54,0.00
2012,06,02,03,55,0.00
2012,06,02,03,56,0.00
2012,06,02,03,57,0.00
2012,06,02,03,58,0.00
2012,06,02,03,59,0.00
2012,06,02,04,00,0.00
2012,06,02,04,01,1.40
2012,06,02,04,02,5.00
2012,06,02,04,03,5.00
2012,06,02,04,04,5.00
2012,06,02,04,05,5.00
2012,06,02,04,06,5.00
2012,06,02,04,07,5.00
2012,06,02,04,08,5.00
2012,06,02,04,09,5.00
2012,06,02,04,10,5.00
2012,06,02,04,11,5.00
2012,06,02,04,12,7.00
2012,06,02,04,13,7.00
2012,06,02,04,14,7.00
2012,06,02,04,15,7.00
2012,06,02,04,16,7.00
2012,06,02,04,17,7.00
2012,06,02,04,18,7.00
2012,06,02,04,19,7.00
2012,06,02,04,20,7.00
2012,06,02,04,21,7.00
2012,06,02,04,22,7.00
2012,06,02,04,23,7.00
2012,06,02,04,24,7.00
2012,06,02,04,25,7.00
2012,06,02,04,26,7.00
2012,06,02,04,27,7.00
2012,06,02,04,28,7.00
2012,06,02,04,29,7.00
2012,06,02,04,30,7.00
2012,06,02,04,31,7.00
2012,06,02,04,32,7.00
2012,06,02,04,33,7.00
2012,06,02,04,34,7.00
2012,06,02,04,35,7.20
2012,06,02,04,36,9.00
2012,06,02,04,37,9.00
2012,06,02,04,38,9.00
2012,06,02,04,39,9.00
2012,06,02,04,40,9.00
2012,06,02,04,41,9.20
2012,06,02,04,42,11.00
2012,06,02,04,43,11.00
2012,06,02,04,44,11.00
2012,06,02,04,45,11.00
2012,06,02,04,46,11.00
2012,06,02,04,47,11.00
2012,06,02,04,48,11.30
2012,06,02,04,49,12.00
2012,06,02,04,50,12.00
2012,06,02,04,51,12.00
2012,06,02,04,52,12.00
2012,06,02,04,53,12.30
2012,06,02,04,54,14.00
2012,06,02,04,55,14.00
2012,06,02,04,56,14.00
2012,06,02,04,57,14.00
2012,06,02,04,58,14.00
2012,06,02,04,59,16.00
2012,06,02,05,00,16.00
2012,06,02,05,01,16.00
2012,06,02,05,02,17.20
2012,06,02,05,03,18.00
2012,06,02,05,04,18.00
2012,06,02,05,05,18.00
2012,06,02,05,06,18.00
2012,06,02,05,07,18.00
2012,06,02,05,08,18.00
2012,06,02,05,09,18.00
2012,06,02,05,10,18.00
2012,06,02,05,11,18.00
2012,06,02,05,12,18.00
2012,06,02,05,13,18.50
2012,06,02,05,14,19.00
2012,06,02,05,15,19.00
2012,06,02,05,16,19.00
2012,06,02,05,17,19.40
2012,06,02,05,18,21.00
2012,06,02,05,19,21.00
2012,06,02,05,20,22.40
2012,06,02,05,21,23.00
2012,06,02,05,22,23.00
2012,06,02,05,23,23.00
2012,06,02,05,24,23.00
2012,06,02,05,25,24.10
2012,06,02,05,26,25.00
2012,06,02,05,27,25.00
2012,06,02,05,28,25.00
2012,06,02,05,29,25.00
2012,06,02,05,30,24.20
2012,06,02,05,31,23.00
2012,06,02,05,32,23.00
2012,06,02,05,33,23.00
2012,06,02,05,34,23.00
2012,06,02,05,35,22.50
2012,06,02,05,36,21.00
2012,06,02,05,37,21.00
2012,06,02,05,38,21.00
2012,06,02,05,39,21.00
2012,06,02,05,40,21.00
2012,06,02,05,41,21.00
2012,06,02,05,42,21.00
2012,06,02,05,43,21.00
2012,06,02,05,44,21.00
2012,06,02,05,45,21.00
2012,06,02,05,46,21.00
2012,06,02,05,47,21.00
2012,06,02,05,48,21.00
2012,06,02,05,49,22.20
2012,06,02,05,50,23.00
2012,06,02,05,51,23.00
2012,06,02,05,52,23.00
2012,06,02,05,53,23.00
2012,06,02,05,54,23.00
2012,06,02,05,55,23.00
2012,06,02,05,56,23.00
2012,06,02,05,57,23.20
2012,06,02,05,58,25.00
2012,06,02,05,59,25.00
2012,06,02,06,00,25.00
2012,06,02,06,01,25.00
2012,06,02,06,02,25.00
2012,06,02,06,03,25.00
2012,06,02,06,04,25.00
2012,06,02,06,05,25.00
2012,06,02,06,06,25.00
2012,06,02,06,07,25.00
2012,06,02,06,08,25.00
2012,06,02,06,09,25.00
2012,06,02,06,10,25.00
2012,06,02,06,11,25.00
2012,06,02,06,12,25.00
2012,06,02,06,13,25.00
2012,06,02,06,14,25.00
2012,06,02,06,15,25.00
2012,06,02,06,16,25.00
2012,06,02,06,17,25.00
2012,06,02,06,18,25.60
2012,06,02,06,19,26.00
2012,06,02,06,20,26.00
2012,06,02,06,21,26.00
2012,06,02,06,22,26.00
2012,06,02,06,23,26.00
2012,06,02,06,24,26.00
2012,06,02,06,25,26.00
2012,06,02,06,26,26.00
2012,06,02,06,27,26.00
2012,06,02,06,28,26.00
2012,06,02,06,29,26.00
2012,06,02,06,30,26.00
2012,06,02,06,31,26.00
2012,06,02,06,32,27.80
2012,06,02,06,33,28.00
2012,06,02,06,34,28.00
2012,06,02,06,35,28.00
2012,06,02,06,36,28.00
2012,06,02,06,37,28.00
2012,06,02,06,38,29.80
2012,06,02,06,39,30.00
2012,06,02,06,40,30.00
2012,06,02,06,41,30.00
2012,06,02,06,42,30.00
2012,06,02,06,43,30.00
2012,06,02,06,44,30.00
2012,06,02,06,45,30.00
2012,06,02,06,46,30.00
2012,06,02,06,47,30.00
2012,06,02,06,48,30.00
2012,06,02,06,49,30.00
2012,06,02,06,50,31.90
2012,06,02,06,51,32.00
2012,06,02,06,52,32.00
2012,06,02,06,53,32.00
2012,06,02,06,54,32.00
2012,06,02,06,55,32.00
2012,06,02,06,56,32.10
2012,06,02,06,57,33.00
2012,06,02,06,58,33.00
2012,06,02,06,59,33.00
2012,06,02,07,00,33.00
2012,06,02,07,01,33.00
2012,06,02,07,02,35.00
2012,06,02,07,03,35.00
2012,06,02,07,04,35.00
2012,06,02,07,05,36.20
2012,06,02,07,06,37.00
2012,06,02,07,07,37.10
2012,06,02,07,08,39.00
2012,06,02,07,09,39.00
2012,06,02,07,10,39.40
2012,06,02,07,11,40.00
2012,06,02,07,12,40.00
2012,06,02,07,13,41.80
2012,06,02,07,14,42.00
2012,06,02,07,15,42.60
2012,06,02,07,16,44.00
2012,06,02,07,17,44.00
2012,06,02,07,18,44.00
2012,06,02,07,19,45.90
2012,06,02,07,20,46.00
2012,06,02,07,21,46.00
2012,06,02,07,22,46.00
2012,06,02,07,23,46.70
2012,06,02,07,24,47.00
2012,06,02,07,25,47.00
2012,06,02,07,26,47.00
2012,06,02,07,27,47.00
2012,06,02,07,28,47.00
2012,06,02,07,29,48.30
2012,06,02,07,30,49.00
2012,06,02,07,31,49.00
2012,06,02,07,32,49.00
2012,06,02,07,33,49.00
2012,06,02,07,34,49.00
2012,06,02,07,35,50.40
2012,06,02,07,36,51.00
2012,06,02,07,37,51.30
2012,06,02,07,38,53.00
2012,06,02,07,39,53.40
2012,06,02,07,40,55.20
2012,06,02,07,41,58.90
2012,06,02,07,42,66.10
2012,06,02,07,43,100.30
2012,06,02,07,44,136.70
2012,06,02,07,45,169.90
2012,06,02,07,46,198.50
2012,06,02,07,47,206.70
2012,06,02,07,48,208.70
2012,06,02,07,49,212.00
2012,06,02,07,50,207.00
2012,06,02,07,51,207.00
2012,06,02,07,52,208.20
2012,06,02,07,53,209.00
2012,06,02,07,54,209.30
2012,06,02,07,55,216.70
2012,06,02,07,56,223.30
2012,06,02,07,57,231.90
2012,06,02,07,58,235.90
2012,06,02,07,59,240.10
2012,06,02,08,00,249.30
2012,06,02,08,01,254.50
2012,06,02,08,02,263.40
2012,06,02,08,03,269.00
2012,06,02,08,04,285.10
2012,06,02,08,05,305.10
2012,06,02,08,06,319.50
2012,06,02,08,07,329.40
2012,06,02,08,08,340.40
2012,06,02,08,09,347.60
2012,06,02,08,10,352.00
2012,06,02,08,11,353.00
2012,06,02,08,12,360.20
2012,06,02,08,13,365.30
2012,06,02,08,14,371.00
2012,06,02,08,15,376.20
2012,06,02,08,16,379.40
2012,06,02,08,17,380.80
2012,06,02,08,18,384.30
2012,06,02,08,19,379.00
2012,06,02,08,20,376.90
2012,06,02,08,21,379.70
2012,06,02,08,22,385.90
2012,06,02,08,23,383.70
2012,06,02,08,24,381.80
2012,06,02,08,25,390.10
2012,06,02,08,26,396.80
2012,06,02,08,27,387.70
2012,06,02,08,28,385.90
2012,06,02,08,29,389.60
2012,06,02,08,30,401.50
2012,06,02,08,31,405.60
2012,06,02,08,32,410.00
2012,06,02,08,33,408.80
2012,06,02,08,34,409.60
2012,06,02,08,35,410.90
2012,06,02,08,36,411.70
2012,06,02,08,37,416.10
2012,06,02,08,38,419.00
2012,06,02,08,39,422.50
2012,06,02,08,40,426.30
2012,06,02,08,41,429.00
2012,06,02,08,42,434.80
2012,06,02,08,43,435.80
2012,06,02,08,44,422.50
2012,06,02,08,45,387.60
2012,06,02,08,46,363.00
2012,06,02,08,47,379.40
2012,06,02,08,48,383.40
2012,06,02,08,49,388.40
2012,06,02,08,50,387.20
2012,06,02,08,51,371.90
2012,06,02,08,52,330.20
2012,06,02,08,53,301.50
2012,06,02,08,54,334.50
2012,06,02,08,55,348.10
2012,06,02,08,56,374.00
2012,06,02,08,57,375.90
2012,06,02,08,58,361.60
2012,06,02,08,59,331.30
2012,06,02,09,00,334.30
2012,06,02,09,01,357.90
2012,06,02,09,02,354.40
2012,06,02,09,03,363.50
2012,06,02,09,04,407.30
2012,06,02,09,05,424.90
2012,06,02,09,06,419.30
2012,06,02,09,07,409.90
2012,06,02,09,08,423.20
2012,06,02,09,09,429.00
2012,06,02,09,10,436.80
2012,06,02,09,11,439.70
2012,06,02,09,12,445.80
2012,06,02,09,13,430.50
2012,06,02,09,14,420.40
2012,06,02,09,15,424.20
2012,06,02,09,16,465.50
2012,06,02,09,17,482.00
2012,06,02,09,18,483.60
2012,06,02,09,19,488.50
2012,06,02,09,20,478.10
2012,06,02,09,21,493.80
2012,06,02,09,22,494.60
2012,06,02,09,23,496.70
2012,06,02,09,24,499.70
2012,06,02,09,25,499.00
2012,06,02,09,26,466.30
2012,06,02,09,27,435.90
2012,06,02,09,28,455.10
2012,06,02,09,29,452.80
2012,06,02,09,30,393.10
2012,06,02,09,31,404.00
2012,06,02,09,32,473.10
2012,06,02,09,33,515.00
2012,06,02,09,34,501.50
2012,06,02,09,35,497.00
2012,06,02,09,36,461.80
2012,06,02,09,37,385.60
2012,06,02,09,38,370.90
2012,06,02,09,39,369.70
2012,06,02,09,40,317.30
2012,06,02,09,41,297.50
2012,06,02,09,42,294.00
2012,06,02,09,43,368.50
2012,06,02,09,44,391.70
2012,06,02,09,45,390.40
2012,06,02,09,46,397.30
2012,06,02,09,47,372.30
2012,06,02,09,48,348.50
2012,06,02,09,49,405.40
2012,06,02,09,50,401.00
2012,06,02,09,51,388.70
2012,06,02,09,52,408.00
2012,06,02,09,53,420.70
2012,06,02,09,54,448.00
2012,06,02,09,55,347.80
2012,06,02,09,56,284.00
2012,06,02,09,57,278.30
2012,06,02,09,58,264.50
2012,06,02,09,59,287.90
2012,06,02,10,00,365.70
2012,06,02,10,01,441.80
2012,06,02,10,02,477.50
2012,06,02,10,03,441.70
2012,06,02,10,04,417.60
2012,06,02,10,05,429.10
2012,06,02,10,06,431.00
2012,06,02,10,07,496.30
2012,06,02,10,08,474.70
2012,06,02,10,09,526.50
2012,06,02,10,10,532.70
2012,06,02,10,11,461.90
2012,06,02,10,12,467.50
2012,06,02,10,13,471.80
2012,06,02,10,14,404.00
2012,06,02,10,15,361.80
2012,06,02,10,16,378.00
2012,06,02,10,17,418.70
2012,06,02,10,18,428.40
2012,06,02,10,19,361.40
2012,06,02,10,20,397.20
2012,06,02,10,21,444.50
2012,06,02,10,22,446.70
2012,06,02,10,23,482.70
2012,06,02,10,24,515.00
2012,06,02,10,25,503.90
2012,06,02,10,26,491.20
2012,06,02,10,27,494.70
2012,06,02,10,28,515.70
2012,06,02,10,29,513.00
2012,06,02,10,30,513.10
2012,06,02,10,31,543.70
2012,06,02,10,32,548.30
2012,06,02,10,33,587.50
2012,06,02,10,34,582.90
2012,06,02,10,35,617.80
2012,06,02,10,36,626.50
2012,06,02,10,37,639.20
2012,06,02,10,38,651.30
2012,06,02,10,39,615.10
2012,06,02,10,40,615.40
2012,06,02,10,41,623.50
2012,06,02,10,42,616.40
2012,06,02,10,43,603.50
2012,06,02,10,44,677.20
2012,06,02,10,45,684.50
2012,06,02,10,46,665.90
2012,06,02,10,47,681.30
2012,06,02,10,48,709.80
2012,06,02,10,49,721.20
2012,06,02,10,50,720.00
2012,06,02,10,51,737.00
2012,06,02,10,52,766.00
2012,06,02,10,53,769.70
2012,06,02,10,54,777.00
2012,06,02,10,55,767.00
2012,06,02,10,56,731.80
2012,06,02,10,57,707.60
2012,06,02,10,58,733.80
2012,06,02,10,59,740.70
2012,06,02,11,00,745.50
2012,06,02,11,01,755.10
2012,06,02,11,02,754.70
2012,06,02,11,03,734.40
2012,06,02,11,04,738.00
2012,06,02,11,05,732.90
2012,06,02,11,06,725.30
2012,06,02,11,07,721.40
2012,06,02,11,08,680.40
2012,06,02,11,09,628.70
2012,06,02,11,10,607.60
2012,06,02,11,11,630.40
2012,06,02,11,12,643.90
2012,06,02,11,13,611.60
2012,06,02,11,14,618.30
2012,06,02,11,15,647.00
2012,06,02,11,16,641.40
2012,06,02,11,17,638.10
2012,06,02,11,18,623.20
2012,06,02,11,19,637.40
2012,06,02,11,20,684.30
2012,06,02,11,21,725.90
2012,06,02,11,22,736.50
2012,06,02,11,23,739.30
2012,06,02,11,24,769.10
2012,06,02,11,25,754.70
2012,06,02,11,26,741.90
2012,06,02,11,27,670.00
2012,06,02,11,28,670.00
2012,06,02,11,29,726.10
2012,06,02,11,30,758.30
2012,06,02,11,31,755.30
2012,06,02,11,32,717.00
2012,06,02,11,33,680.80
2012,06,02,11,34,641.50
2012,06,02,11,35,659.70
2012,06,02,11,36,710.50
2012,06,02,11,37,719.00
2012,06,02,11,38,699.00
2012,06,02,11,39,677.60
2012,06,02,11,40,660.60
2012,06,02,11,41,634.50
2012,06,02,11,42,659.40
2012,06,02,11,43,675.80
2012,06,02,11,44,679.40
2012,06,02,11,45,630.50
2012,06,02,11,46,578.00
2012,06,02,11,47,654.50
2012,06,02,11,48,667.00
2012,06,02,11,49,605.80
2012,06,02,11,50,607.50
2012,06,02,11,51,615.60
2012,06,02,11,52,643.80
2012,06,02,11,53,666.10
2012,06,02,11,54,669.90
2012,06,02,11,55,665.70
2012,06,02,11,56,604.70
2012,06,02,11,57,527.10
2012,06,02,11,58,514.90
2012,06,02,11,59,532.70
2012,06,02,12,00,555.60
2012,06,02,12,01,601.70
2012,06,02,12,02,629.50
2012,06,02,12,03,665.40
2012,06,02,12,04,688.50
2012,06,02,12,05,713.60
2012,06,02,12,06,742.20
2012,06,02,12,07,761.60
2012,06,02,12,08,797.00
2012,06,02,12,09,817.50
2012,06,02,12,10,823.00
2012,06,02,12,11,826.90
2012,06,02,12,12,817.90
2012,06,02,12,13,799.50
2012,06,02,12,14,790.20
2012,06,02,12,15,787.40
2012,06,02,12,16,778.30
2012,06,02,12,17,750.20
2012,06,02,12,18,728.50
2012,06,02,12,19,726.20
2012,06,02,12,20,742.00
2012,06,02,12,21,753.90
2012,06,02,12,22,744.20
2012,06,02,12,23,695.00
2012,06,02,12,24,723.30
2012,06,02,12,25,761.60
2012,06,02,12,26,776.40
2012,06,02,12,27,818.80
2012,06,02,12,28,815.40
2012,06,02,12,29,789.50
2012,06,02,12,30,782.80
2012,06,02,12,31,775.60
2012,06,02,12,32,763.40
2012,06,02,12,33,761.60
2012,06,02,12,34,742.20
2012,06,02,12,35,754.50
2012,06,02,12,36,794.60
2012,06,02,12,37,840.00
2012,06,02,12,38,875.20
2012,06,02,12,39,879.00
2012,06,02,12,40,867.60
2012,06,02,12,41,847.60
2012,06,02,12,42,823.80
2012,06,02,12,43,798.70
2012,06,02,12,44,791.50
2012,06,02,12,45,801.10
2012,06,02,12,46,771.70
2012,06,02,12,47,740.00
2012,06,02,12,48,788.80
2012,06,02,12,49,835.50
2012,06,02,12,50,864.00
2012,06,02,12,51,820.40
2012,06,02,12,52,823.90
2012,06,02,12,53,822.80
2012,06,02,12,54,690.00
2012,06,02,12,55,595.00
2012,06,02,12,56,571.30
2012,06,02,12,57,628.50
2012,06,02,12,58,616.70
2012,06,02,12,59,626.50
2012,06,02,13,00,738.00
2012,06,02,13,01,710.00
2012,06,02,13,02,682.00
2012,06,02,13,03,595.00
2012,06,02,13,04,524.00
2012,06,02,13,05,523.10
2012,06,02,13,06,515.50
2012,06,02,13,07,513.00
2012,06,02,13,08,518.90
2012,06,02,13,09,551.40
2012,06,02,13,10,563.30
2012,06,02,13,11,603.90
2012,06,02,13,12,654.40
2012,06,02,13,13,699.20
2012,06,02,13,14,723.40
2012,06,02,13,15,743.40
2012,06,02,13,16,799.50
2012,06,02,13,17,833.50
2012,06,02,13,18,880.40
2012,06,02,13,19,863.10
2012,06,02,13,20,820.30
2012,06,02,13,21,810.20
2012,06,02,13,22,841.40
2012,06,02,13,23,812.30
2012,06,02,13,24,829.30
2012,06,02,13,25,831.70
2012,06,02,13,26,803.00
2012,06,02,13,27,824.60
2012,06,02,13,28,823.60
2012,06,02,13,29,745.20
2012,06,02,13,30,720.30
2012,06,02,13,31,744.50
2012,06,02,13,32,748.50
2012,06,02,13,33,673.20
2012,06,02,13,34,689.20
2012,06,02,13,35,737.00
2012,06,02,13,36,717.00
2012,06,02,13,37,686.00
2012,06,02,13,38,683.30
2012,06,02,13,39,666.50
2012,06,02,13,40,642.80
2012,06,02,13,41,666.00
2012,06,02,13,42,539.60
2012,06,02,13,43,344.70
2012,06,02,13,44,353.70
2012,06,02,13,45,370.20
2012,06,02,13,46,401.70
2012,06,02,13,47,507.40
2012,06,02,13,48,748.80
2012,06,02,13,49,722.40
2012,06,02,13,50,742.30
2012,06,02,13,51,776.00
2012,06,02,13,52,790.80
2012,06,02,13,53,804.10
2012,06,02,13,54,794.20
2012,06,02,13,55,725.00
2012,06,02,13,56,718.70
2012,06,02,13,57,746.40
2012,06,02,13,58,747.10
2012,06,02,13,59,733.50
2012,06,02,14,00,725.00
2012,06,02,14,01,719.00
2012,06,02,14,02,665.50
2012,06,02,14,03,642.00
2012,06,02,14,04,621.30
2012,06,02,14,05,578.40
2012,06,02,14,06,560.50
2012,06,02,14,07,538.40
2012,06,02,14,08,509.40
2012,06,02,14,09,505.80
2012,06,02,14,10,507.30
2012,06,02,14,11,496.00
2012,06,02,14,12,492.00
2012,06,02,14,13,520.00
2012,06,02,14,14,444.90
2012,06,02,14,15,434.10
2012,06,02,14,16,542.10
2012,06,02,14,17,556.60
2012,06,02,14,18,588.30
2012,06,02,14,19,579.80
2012,06,02,14,20,572.10
2012,06,02,14,21,574.60
2012,06,02,14,22,573.80
2012,06,02,14,23,583.10
2012,06,02,14,24,572.00
2012,06,02,14,25,567.30
2012,06,02,14,26,557.60
2012,06,02,14,27,510.10
2012,06,02,14,28,572.80
2012,06,02,14,29,560.10
2012,06,02,14,30,639.40
2012,06,02,14,31,710.30
2012,06,02,14,32,751.80
2012,06,02,14,33,765.10
2012,06,02,14,34,796.80
2012,06,02,14,35,810.00
2012,06,02,14,36,818.20
2012,06,02,14,37,828.40
2012,06,02,14,38,847.00
2012,06,02,14,39,899.60
2012,06,02,14,40,913.00
2012,06,02,14,41,933.00
2012,06,02,14,42,943.20
2012,06,02,14,43,941.00
2012,06,02,14,44,941.50
2012,06,02,14,45,971.10
2012,06,02,14,46,947.00
2012,06,02,14,47,959.00
2012,06,02,14,48,993.00
2012,06,02,14,49,993.00
2012,06,02,14,50,985.80
2012,06,02,14,51,838.00
2012,06,02,14,52,849.00
2012,06,02,14,53,849.00
2012,06,02,14,54,849.00
2012,06,02,14,55,653.30
2012,06,02,14,56,599.00
2012,06,02,14,57,532.30
2012,06,02,14,58,289.10
2012,06,02,14,59,281.50
2012,06,02,15,00,278.00
2012,06,02,15,01,285.70
2012,06,02,15,02,292.40
2012,06,02,15,03,278.20
2012,06,02,15,04,276.00
2012,06,02,15,05,277.60
2012,06,02,15,06,285.30
2012,06,02,15,07,295.50
2012,06,02,15,08,298.70
2012,06,02,15,09,297.00
2012,06,02,15,10,296.20
2012,06,02,15,11,300.30
2012,06,02,15,12,304.00
2012,06,02,15,13,304.00
2012,06,02,15,14,1053.60
2012,06,02,15,15,1043.10
2012,06,02,15,16,1041.00
2012,06,02,15,17,1041.00
2012,06,02,15,18,506.60
2012,06,02,15,19,321.40
2012,06,02,15,20,318.00
2012,06,02,15,21,307.40
2012,06,02,15,22,309.50
2012,06,02,15,23,324.50
2012,06,02,15,24,324.10
2012,06,02,15,25,299.40
2012,06,02,15,26,271.90
2012,06,02,15,27,262.70
2012,06,02,15,28,265.50
2012,06,02,15,29,270.30
2012,06,02,15,30,273.60
2012,06,02,15,31,264.60
2012,06,02,15,32,257.40
2012,06,02,15,33,256.80
2012,06,02,15,34,270.50
2012,06,02,15,35,281.00
2012,06,02,15,36,281.00
2012,06,02,15,37,962.50
2012,06,02,15,38,1020.50
2012,06,02,15,39,1044.00
2012,06,02,15,40,1044.00
2012,06,02,15,41,1031.60
2012,06,02,15,42,1006.00
2012,06,02,15,43,1002.00
2012,06,02,15,44,998.90
2012,06,02,15,45,985.60
2012,06,02,15,46,974.10
2012,06,02,15,47,965.10
2012,06,02,15,48,938.70
2012,06,02,15,49,924.90
2012,06,02,15,50,975.00
2012,06,02,15,51,953.40
2012,06,02,15,52,945.20
2012,06,02,15,53,944.00
2012,06,02,15,54,939.70
2012,06,02,15,55,939.40
2012,06,02,15,56,942.00
2012,06,02,15,57,942.90
2012,06,02,15,58,929.40
2012,06,02,15,59,932.50
2012,06,02,16,00,937.00
2012,06,02,16,01,823.80
2012,06,02,16,02,258.70
2012,06,02,16,03,256.80
2012,06,02,16,04,259.30
2012,06,02,16,05,269.20
2012,06,02,16,06,274.10
2012,06,02,16,07,290.70
2012,06,02,16,08,320.00
2012,06,02,16,09,631.10
2012,06,02,16,10,938.80
2012,06,02,16,11,933.70
2012,06,02,16,12,913.50
2012,06,02,16,13,912.90
2012,06,02,16,14,907.50
2012,06,02,16,15,905.00
2012,06,02,16,16,905.00
2012,06,02,16,17,895.60
2012,06,02,16,18,887.70
2012,06,02,16,19,882.50
2012,06,02,16,20,886.60
2012,06,02,16,21,892.10
2012,06,02,16,22,890.30
2012,06,02,16,23,886.50
2012,06,02,16,24,889.20
2012,06,02,16,25,892.80
2012,06,02,16,26,899.60
2012,06,02,16,27,904.70
2012,06,02,16,28,911.90
2012,06,02,16,29,915.70
2012,06,02,16,30,920.40
2012,06,02,16,31,923.90
2012,06,02,16,32,897.50
2012,06,02,16,33,892.50
2012,06,02,16,34,902.00
2012,06,02,16,35,900.30
2012,06,02,16,36,883.60
2012,06,02,16,37,780.00
2012,06,02,16,38,780.00
2012,06,02,16,39,780.00
2012,06,02,16,40,359.40
2012,06,02,16,41,203.20
2012,06,02,16,42,197.00
2012,06,02,16,43,198.50
2012,06,02,16,44,202.00
2012,06,02,16,45,200.10
2012,06,02,16,46,197.40
2012,06,02,16,47,195.30
2012,06,02,16,48,197.90
2012,06,02,16,49,203.70
2012,06,02,16,50,211.30
2012,06,02,16,51,219.10
2012,06,02,16,52,228.00
2012,06,02,16,53,238.40
2012,06,02,16,54,242.70
2012,06,02,16,55,248.70
2012,06,02,16,56,250.00
2012,06,02,16,57,253.30
2012,06,02,16,58,258.90
2012,06,02,16,59,269.80
2012,06,02,17,00,279.50
2012,06,02,17,01,272.80
2012,06,02,17,02,271.50
2012,06,02,17,03,272.00
2012,06,02,17,04,271.20
2012,06,02,17,05,264.90
2012,06,02,17,06,260.90